{"data":{"norad_id":57713,"intl_designator":"2023-129R","name":"STARLINK-30349","alt_names":[],"object_type":"PAYLOAD","status":"ACTIVE","operator":null,"country":"US","launch_date":"2023-08-27","launch_site_code":"AFETR","launch_vehicle":null,"mission":null,"orbit_class":"UNKNOWN","rcs_meters":null,"size_class":null,"mass_kg":null,"dimensions":null,"purposes":["comms"],"wikipedia_slug":null,"has_3d_model":false,"image_url":null,"decayed_at":null,"tle_current":{"epoch":"2026-09-20T21:21:44.885376Z","epoch_age_seconds":97423,"freshness":"FRESH","line1":"1 57713U 23129R   26263.89010284  .00000269  00000+0  19299-4 0  9991","line2":"2 57713  43.0004  95.7097 0001126 267.7251  92.3472 15.27576942170398","mean_motion":15.27576942,"eccentricity":0.0001126,"inclination_deg":43.0004,"raan_deg":95.7097,"arg_perigee_deg":267.7251,"mean_anomaly_deg":92.3472,"bstar":1.9299e-5,"rev_number":17039,"period_min":94.266937422783,"perigee_km":482.28568222157,"apogee_km":483.83082339251,"semimajor_km":6861.195252807,"source":"CELESTRAK","updated_at":"2026-09-21T09:00:33.676610Z"}}}